Location: Unspecified
(0.0000°N, 0.0000°E)
Time: 11:55:16
(UTC+00:00)

deb Explorer IX - All Passes

Search period start: 26 August 2016 00:00
Search period end: 05 September 2016 00:00
Orbit: 552 x 1127 km, 38.8° (Epoch: 24 August)

Date Brightness Start Highest point End Pass type
(mag) Time Alt. Az. Time Alt. Az. Time Alt. Az.
26 Aug - 05:54:21 10° NNW 06:00:08 41° NE 06:05:04 10° ESE daylight
26 Aug - 07:42:46 10° W 07:47:21 26° SW 07:51:24 10° SSE daylight
26 Aug - 16:52:10 10° S 16:55:16 16° SE 16:58:37 10° E daylight
26 Aug - 18:36:55 10° SW 18:42:26 77° NW 18:48:58 10° NE visible
26 Aug - 20:27:09 10° WNW 20:30:32 15° NW 20:34:08 10° N visible
27 Aug - 05:36:31 10° NNW 05:42:34 47° NE 05:47:44 10° ESE visible
27 Aug - 07:25:16 10° W 07:29:47 24° SW 07:33:50 10° SSE daylight
27 Aug - 16:34:28 10° S 16:37:42 17° SE 16:41:14 10° E daylight
27 Aug - 18:19:30 10° WSW 18:24:52 68° NW 18:31:12 10° NE visible
27 Aug - 20:10:19 10° WNW 20:12:59 13° NNW 20:15:48 10° N visible
28 Aug - 03:36:26 10° NNE 03:36:40 10° NNE 03:36:55 10° NE visible
28 Aug - 05:18:41 10° NW 05:25:00 53° NE 05:30:22 10° ESE visible
28 Aug - 07:07:46 10° W 07:12:14 23° SW 07:16:13 10° S daylight
28 Aug - 16:16:48 10° S 16:20:09 18° SE 16:23:50 10° E daylight
28 Aug - 18:02:06 10° WSW 18:07:17 61° NW 18:13:25 10° NE daylight
28 Aug - 19:53:52 10° NW 19:55:28 11° NNW 19:57:07 10° NNW visible
29 Aug - 03:16:52 10° NNE 03:19:08 12° NNE 03:21:21 10° NE visible
29 Aug - 05:00:52 10° NW 05:07:25 60° NE 05:12:59 10° ESE visible
29 Aug - 06:50:16 10° W 06:54:40 21° SW 06:58:36 10° S daylight
29 Aug - 15:59:09 10° S 16:02:37 20° SE 16:06:25 10° E daylight
29 Aug - 17:44:44 10° WSW 17:49:44 53° NW 17:55:37 10° NE daylight
30 Aug - 02:58:23 10° N 03:01:35 13° NE 03:04:39 10° ENE visible
30 Aug - 04:43:04 10° NW 04:49:48 67° NE 04:55:34 10° ESE visible
30 Aug - 06:32:49 10° W 06:37:05 20° SW 06:40:57 10° S daylight
30 Aug - 15:41:32 10° S 15:45:05 21° SE 15:48:59 10° E daylight
30 Aug - 17:27:24 10° WSW 17:32:11 47° NW 17:37:49 10° NNE daylight
31 Aug - 02:40:06 10° N 02:44:01 15° NE 02:47:44 10° ENE visible
31 Aug - 04:25:16 10° NW 04:32:11 74° NE 04:38:08 10° SE visible
31 Aug - 06:15:21 10° W 06:19:30 18° SW 06:23:17 10° S daylight
31 Aug - 15:23:55 10° S 15:27:33 23° SE 15:31:32 10° E daylight
31 Aug - 17:10:05 10° WSW 17:14:40 40° NW 17:20:00 10° NNE daylight
01 Sep - 02:21:57 10° N 02:26:26 17° NE 02:30:40 10° ENE visible
01 Sep - 04:07:30 10° NW 04:14:33 82° NE 04:20:40 10° SE visible
01 Sep - 05:57:55 10° W 06:01:54 17° SW 06:05:34 10° S daylight
01 Sep - 15:06:20 10° SSW 15:10:01 25° SE 15:14:06 10° E daylight
01 Sep - 16:52:47 10° WSW 16:57:09 35° NW 17:02:10 10° NNE daylight
02 Sep - 02:03:53 10° N 02:08:50 19° NE 02:13:30 10° E visible
02 Sep - 03:49:43 10° NW 03:56:53 89° NNE 04:03:10 10° SE visible
02 Sep - 05:40:31 10° WSW 05:44:19 16° SW 05:47:50 10° S daylight
02 Sep - 14:48:46 10° SSW 14:52:30 28° SE 14:56:38 10° ENE daylight
02 Sep - 16:35:32 10° W 16:39:39 30° NW 16:44:20 10° NNE daylight
03 Sep - 01:45:52 10° N 01:51:12 21° NE 01:56:17 10° E night (unlit)
03 Sep - 03:31:58 10° NW 03:39:14 84° SW 03:45:38 10° SE visible
03 Sep - 05:23:09 10° WSW 05:26:43 15° SW 05:30:03 10° S visible
03 Sep - 14:31:12 10° SSW 14:35:00 31° SE 14:39:10 10° ENE daylight
03 Sep - 16:18:18 10° W 16:22:09 26° NW 16:26:28 10° NNE daylight
04 Sep - 01:27:53 10° NNW 01:33:34 23° NE 01:39:00 10° E night (unlit)
04 Sep - 03:14:14 10° NW 03:21:33 77° SW 03:28:05 10° SE visible
04 Sep - 05:05:49 10° WSW 05:09:06 14° SW 05:12:13 10° S visible
04 Sep - 14:13:38 10° SSW 14:17:30 35° SE 14:21:42 10° ENE daylight
04 Sep - 16:01:07 10° W 16:04:40 23° NW 16:08:36 10° NNE daylight
